Time,TemperatureF,DewpointF,PressureIn,WindDirection,WindDirectionDegrees,WindSpeedMPH,WindSpeedGustMPH,Humidity,HourlyPrecipIn,Conditions,Clouds,dailyrainin,SolarRadiationWatts/m^2,SoftwareType,DateUTC
2013-03-18 00:00:00,25.0,15.0,-100.00,WNW,292,5.0,-999.0,64,-99.99,,,-99.99,0.000000,,2013-03-18 04:00:00,
2013-03-18 00:42:00,25.0,15.0,-100.00,WNW,292,5.0,-999.0,64,-99.99,,,-99.99,0.000000,,2013-03-18 04:42:00,
2013-03-18 00:53:00,25.0,15.0,-100.00,WNW,292,5.0,-999.0,64,-99.99,,,-99.99,0.000000,,2013-03-18 04:53:00,
2013-03-18 01:00:00,25.0,15.0,-100.00,NW,315,5.0,-999.0,66,-99.99,,,-99.99,0.000000,,2013-03-18 05:00:00,
2013-03-18 01:43:00,25.0,15.0,-100.00,NW,315,5.0,-999.0,66,-99.99,,,-99.99,0.000000,,2013-03-18 05:43:00,
2013-03-18 01:52:00,25.0,15.0,-100.00,NW,315,5.0,-999.0,66,-99.99,,,-99.99,0.000000,,2013-03-18 05:52:00,
2013-03-18 02:00:00,25.0,16.0,-100.00,NW,315,5.0,-999.0,68,-99.99,,,-99.99,0.000000,,2013-03-18 06:00:00,
2013-03-18 02:42:00,25.0,16.0,-100.00,NW,315,5.0,-999.0,68,-99.99,,,-99.99,0.000000,,2013-03-18 06:42:00,
2013-03-18 02:52:00,25.0,16.0,-100.00,NW,315,5.0,-999.0,68,-99.99,,,-99.99,0.000000,,2013-03-18 06:52:00,
2013-03-18 03:00:00,24.0,16.0,-100.00,NW,315,5.0,-999.0,70,-99.99,,,-99.99,0.000000,,2013-03-18 07:00:00,
2013-03-18 03:43:00,24.0,16.0,-100.00,NW,315,5.0,-999.0,70,-99.99,,,-99.99,0.000000,,2013-03-18 07:43:00,
2013-03-18 03:53:00,24.0,16.0,-100.00,NW,315,5.0,-999.0,70,-99.99,,,-99.99,0.000000,,2013-03-18 07:53:00,
2013-03-18 04:00:00,24.0,16.0,-100.00,NW,315,5.0,-999.0,72,-99.99,,,-99.99,0.000000,,2013-03-18 08:00:00,
2013-03-18 04:43:00,24.0,16.0,-100.00,NW,315,5.0,-999.0,72,-99.99,,,-99.99,0.000000,,2013-03-18 08:43:00,
2013-03-18 04:53:00,24.0,16.0,-100.00,NW,315,5.0,-999.0,72,-99.99,,,-99.99,0.000000,,2013-03-18 08:53:00,
2013-03-18 05:00:00,23.0,16.0,-100.00,NW,315,5.0,-999.0,73,-99.99,,,-99.99,0.000000,,2013-03-18 09:00:00,
2013-03-18 05:43:00,23.0,16.0,-100.00,NW,315,5.0,-999.0,73,-99.99,,,-99.99,0.000000,,2013-03-18 09:43:00,
2013-03-18 05:53:00,23.0,16.0,-100.00,NW,315,5.0,-999.0,73,-99.99,,,-99.99,0.000000,,2013-03-18 09:53:00,
2013-03-18 06:00:00,22.0,15.0,-100.00,WNW,292,5.0,-999.0,74,-99.99,,,-99.99,0.000000,,2013-03-18 10:00:00,
2013-03-18 06:42:00,22.0,15.0,-100.00,WNW,292,5.0,-999.0,74,-99.99,,,-99.99,0.000000,,2013-03-18 10:42:00,
2013-03-18 06:53:00,22.0,15.0,-100.00,WNW,292,5.0,-999.0,74,-99.99,,,-99.99,0.000000,,2013-03-18 10:53:00,
2013-03-18 07:00:00,22.0,16.0,-100.00,WNW,292,5.0,-999.0,76,-99.99,,,-99.99,0.000000,,2013-03-18 11:00:00,
2013-03-18 07:43:00,22.0,16.0,-100.00,WNW,292,5.0,-999.0,76,-99.99,,,-99.99,0.000000,,2013-03-18 11:43:00,
2013-03-18 07:52:00,22.0,16.0,-100.00,WNW,292,5.0,-999.0,76,-99.99,,,-99.99,0.000000,,2013-03-18 11:52:00,
2013-03-18 08:00:00,22.0,16.0,-100.00,NW,315,6.0,-999.0,77,-99.99,,,-99.99,1.160000,,2013-03-18 12:00:00,
2013-03-18 08:43:00,22.0,16.0,-100.00,NW,315,6.0,-999.0,77,-99.99,,,-99.99,1.160000,,2013-03-18 12:43:00,
2013-03-18 08:52:00,22.0,16.0,-100.00,NW,315,6.0,-999.0,77,-99.99,,,-99.99,1.160000,,2013-03-18 12:52:00,
2013-03-18 09:00:00,24.0,17.0,-100.00,NW,315,6.0,-999.0,75,-99.99,,,-99.99,35.959999,,2013-03-18 13:00:00,
2013-03-18 09:42:00,24.0,17.0,-100.00,NW,315,6.0,-999.0,75,-99.99,,,-99.99,35.959999,,2013-03-18 13:42:00,
2013-03-18 09:52:00,24.0,17.0,-100.00,NW,315,6.0,-999.0,75,-99.99,,,-99.99,35.959999,,2013-03-18 13:52:00,
2013-03-18 10:00:00,26.0,19.0,-100.00,NW,315,6.0,-999.0,74,-99.99,,,-99.99,48.720001,,2013-03-18 14:00:00,
2013-03-18 10:42:00,26.0,19.0,-100.00,NW,315,6.0,-999.0,74,-99.99,,,-99.99,48.720001,,2013-03-18 14:42:00,
2013-03-18 10:52:00,26.0,19.0,-100.00,NW,315,6.0,-999.0,74,-99.99,,,-99.99,48.720001,,2013-03-18 14:52:00,
2013-03-18 11:00:00,27.0,21.0,-100.00,WNW,292,7.0,-999.0,78,-99.99,,,-99.99,120.639999,,2013-03-18 15:00:00,
2013-03-18 11:43:00,27.0,21.0,-100.00,WNW,292,7.0,-999.0,78,-99.99,,,-99.99,120.639999,,2013-03-18 15:43:00,
2013-03-18 11:52:00,27.0,21.0,-100.00,WNW,292,7.0,-999.0,78,-99.99,,,-99.99,120.639999,,2013-03-18 15:52:00,
2013-03-18 12:00:00,28.0,23.0,-100.00,WNW,292,6.0,-999.0,81,-99.99,,,-99.99,111.360001,,2013-03-18 16:00:00,
2013-03-18 12:42:00,28.0,23.0,-100.00,WNW,292,6.0,-999.0,81,-99.99,,,-99.99,111.360001,,2013-03-18 16:42:00,
2013-03-18 12:53:00,28.0,23.0,-100.00,WNW,292,6.0,-999.0,81,-99.99,,,-99.99,111.360001,,2013-03-18 16:53:00,
2013-03-18 13:00:00,28.0,24.0,-100.00,NW,315,6.0,-999.0,85,-99.99,,,-99.99,85.839996,,2013-03-18 17:00:00,
2013-03-18 13:43:00,28.0,24.0,-100.00,NW,315,6.0,-999.0,85,-99.99,,,-99.99,85.839996,,2013-03-18 17:43:00,
2013-03-18 13:52:00,28.0,24.0,-100.00,NW,315,6.0,-999.0,85,-99.99,,,-99.99,85.839996,,2013-03-18 17:52:00,
2013-03-18 14:00:00,29.0,25.0,-100.00,NW,315,6.0,-999.0,84,-99.99,,,-99.99,93.959999,,2013-03-18 18:00:00,
2013-03-18 14:42:00,29.0,25.0,-100.00,NW,315,6.0,-999.0,84,-99.99,,,-99.99,93.959999,,2013-03-18 18:42:00,
2013-03-18 14:52:00,29.0,25.0,-100.00,NW,315,6.0,-999.0,84,-99.99,,,-99.99,93.959999,,2013-03-18 18:52:00,
2013-03-18 15:00:00,30.0,27.0,-100.00,NW,315,3.0,-999.0,90,-99.99,,,-99.99,62.639999,,2013-03-18 19:00:00,
2013-03-18 15:42:00,30.0,27.0,-100.00,NW,315,3.0,-999.0,90,-99.99,,,-99.99,62.639999,,2013-03-18 19:42:00,
2013-03-18 15:52:00,30.0,27.0,-100.00,NW,315,3.0,-999.0,90,-99.99,,,-99.99,62.639999,,2013-03-18 19:52:00,
2013-03-18 16:00:00,31.0,29.0,-100.00,NW,315,2.0,-999.0,93,-99.99,,,-99.99,70.760002,,2013-03-18 20:00:00,
2013-03-18 16:43:00,31.0,29.0,-100.00,NW,315,2.0,-999.0,93,-99.99,,,-99.99,70.760002,,2013-03-18 20:43:00,
2013-03-18 16:52:00,31.0,29.0,-100.00,NW,315,2.0,-999.0,93,-99.99,,,-99.99,70.760002,,2013-03-18 20:52:00,
2013-03-18 17:00:00,31.0,30.0,-100.00,NW,315,1.0,-999.0,94,0.01,,,-99.99,98.599998,,2013-03-18 21:00:00,
2013-03-18 17:43:00,31.0,30.0,-100.00,NW,315,1.0,-999.0,94,0.01,,,-99.99,98.599998,,2013-03-18 21:43:00,
2013-03-18 17:53:00,31.0,30.0,-100.00,NW,315,1.0,-999.0,94,0.01,,,-99.99,98.599998,,2013-03-18 21:53:00,
2013-03-18 18:00:00,32.0,31.0,-100.00,North,0,1.0,-999.0,95,0.02,,,-99.99,64.959999,,2013-03-18 22:00:00,
2013-03-18 18:42:00,32.0,31.0,-100.00,North,0,1.0,-999.0,95,0.02,,,-99.99,64.959999,,2013-03-18 22:42:00,
2013-03-18 18:53:00,32.0,31.0,-100.00,North,0,1.0,-999.0,95,0.02,,,-99.99,64.959999,,2013-03-18 22:53:00,
2013-03-18 19:00:00,32.0,31.0,-100.00,NNE,22,2.0,-999.0,95,0.02,,,-99.99,48.720001,,2013-03-18 23:00:00,
2013-03-18 19:43:00,32.0,31.0,-100.00,NNE,22,2.0,-999.0,95,0.02,,,-99.99,48.720001,,2013-03-18 23:43:00,
2013-03-18 19:53:00,32.0,31.0,-100.00,NNE,22,2.0,-999.0,95,0.02,,,-99.99,48.720001,,2013-03-18 23:53:00,
2013-03-18 21:00:00,33.0,31.0,-100.00,East,90,8.0,-999.0,93,0.02,,,-99.99,1.160000,,2013-03-19 01:00:00,
2013-03-18 21:43:00,33.0,31.0,-100.00,East,90,8.0,-999.0,93,0.02,,,-99.99,1.160000,,2013-03-19 01:43:00,
2013-03-18 21:52:00,33.0,31.0,-100.00,East,90,8.0,-999.0,93,0.02,,,-99.99,1.160000,,2013-03-19 01:52:00,
2013-03-18 22:00:00,33.0,30.0,-100.00,ESE,112,9.0,-999.0,87,-99.99,,,-99.99,1.160000,,2013-03-19 02:00:00,
2013-03-18 22:43:00,33.0,30.0,-100.00,ESE,112,9.0,-999.0,87,-99.99,,,-99.99,1.160000,,2013-03-19 02:43:00,
2013-03-18 22:53:00,33.0,30.0,-100.00,ESE,112,9.0,-999.0,87,-99.99,,,-99.99,1.160000,,2013-03-19 02:53:00,
2013-03-18 23:00:00,34.0,30.0,-100.00,ESE,112,9.0,-999.0,88,0.01,,,-99.99,1.160000,,2013-03-19 03:00:00,
2013-03-18 23:43:00,34.0,30.0,-100.00,ESE,112,9.0,-999.0,88,0.01,,,-99.99,1.160000,,2013-03-19 03:43:00,
2013-03-18 23:54:00,34.0,30.0,-100.00,ESE,112,9.0,-999.0,88,0.01,,,-99.99,1.160000,,2013-03-19 03:54:00,